1382054428317,1.01444
1382054488317,1.01335
1382054548317,1.00876
1382054608317,1.01203
1382054668317,1.01425
1382054728317,1.01181
1382054788317,1.01279
1382054848317,1.01011
1382054908317,1.01145
1382054968317,1.00659
1382055028317,1.00643
1382055088317,1.00756
1382055148317,1.01431
1382055208317,1.01050
1382055268317,1.02238
1382055328317,1.02196
1382055388317,1.02676
1382055448317,1.01055
1382055508317,1.01851
1382055568317,1.02445
1382055628317,1.01176
1382055688317,1.01061
1382055748317,1.02135
1382055808317,1.01718
1382055868317,1.01998
1382055928317,1.01596
1382055988317,1.01886
1382056048317,1.01948
1382056108317,1.02316
1382056168317,1.02105
1382056228317,1.01552
1382056288317,1.01394
1382056348317,1.00808
1382056408317,1.01413
1382056468317,1.00905
1382056528317,1.01061
1382056588317,1.01736
1382056648317,1.01622
1382056708317,1.01869
1382056768317,1.01072
1382056828317,1.02114
1382056888317,1.01644
1382056948317,1.01222
1382057008317,1.01529
1382057068317,1.01519
1382057128317,1.02012
1382057188317,1.01615
1382057248317,1.02112
1382057308317,1.01357
1382057368317,1.01949
1382057428317,1.02267
1382057488317,1.01996
1382057548317,1.01723
1382057608317,1.02104
1382057668317,1.01392
1382057728317,1.01463
1382057788317,1.01519
1382057848317,1.02014
1382057908317,1.01541
1382057968317,1.03304
1382058028327,1.03839
1382058088327,1.06821
1382058148327,1.07913
1382058208327,1.08295
1382058268327,1.08194
1382058328327,1.05571
1382058388327,1.04745
1382058448327,1.04802
1382058508327,1.03954
1382058568327,1.02962
1382058628327,1.03268
1382058688327,1.03160
1382058748327,1.02829
1382058808327,1.03301
1382058868327,1.04372
1382058928327,1.02562
1382058988327,1.03484
1382059048327,1.02845
1382059108327,1.02528
1382059168327,1.02048
1382059228327,1.02429
1382059288327,1.02702
1382059348327,1.02407
1382059408327,1.02594
1382059468327,1.02683
1382059528327,1.02946
1382059588327,1.02454
1382059648327,1.01399
1382059708327,1.01799
1382059768327,1.01393
1382059828327,1.01309
1382059888327,1.01235
1382059948327,1.02096
1382060008327,1.01440
1382060068327,1.01154
1382060128327,1.00792
1382060188327,1.01791
1382060248327,1.01976
1382060308327,1.01623
1382060368327,1.01893
1382060428327,1.02232
1382060488327,1.02186
1382060548327,1.02393
1382060608327,1.01893
1382060668327,1.01099
1382060728327,1.02052
1382060788327,1.01515
1382060848327,1.01073
1382060908327,1.02136
1382060968327,1.02321
1382061028327,1.02505
1382061088327,1.01125
1382061148327,1.03434
1382061208327,1.02291
1382061268327,1.03085
1382061328327,1.02029
1382061388327,1.02960
1382061448327,1.03042
1382061508327,1.02265
1382061568327,1.02554
1382061628337,1.02462
1382061688337,1.01807
1382061748337,1.02608
1382061808337,1.02709
1382061868337,1.02173
1382061928337,1.03182
1382061988337,1.02975
1382062048337,1.03229
1382062108337,1.03142
1382062168337,1.03460
1382062228337,1.03579
1382062288337,1.04178
1382062348337,1.03935
1382062408337,1.04001
1382062468337,1.04311
1382062528337,1.04859
1382062588337,1.03617
1382062648337,1.03310
1382062708337,1.02984
1382062768337,1.03610
1382062828337,1.03509
1382062888337,1.02963
1382062948337,1.02253
1382063008337,1.01975
1382063068337,1.02273
1382063128337,1.02747
1382063188337,1.03338
1382063248337,1.03299
1382063308337,1.03135
1382063368337,1.02178
1382063428337,1.02470
1382063488337,1.02982
1382063548337,1.02226
1382063608337,1.02421
1382063668337,1.02857
1382063728337,1.02407
1382063788337,1.02290
1382063848337,1.01954
1382063908337,1.02360
1382063968337,1.02871
1382064028337,1.02915
1382064088337,1.02479
1382064148337,1.02846
1382064208337,1.02218
1382064268337,1.02269
1382064328337,1.02865
1382064388337,1.02456
1382064448337,1.02210
1382064508337,1.01528
1382064568337,1.01690
1382064628337,1.02088
1382064688337,1.02085
1382064748337,1.02078
1382064808337,1.00882
1382064868337,1.02135
1382064928337,1.02781
1382064988337,1.01483
1382065048337,1.03118
1382065108337,1.01658
1382065168337,1.01299
1382065228347,1.00585
1382065288347,1.01310
1382065348347,1.02280
1382065408347,1.02439
1382065468347,1.02401
1382065528347,1.02119
1382065588347,1.04034
1382065648347,1.05703
1382065708347,1.08224
1382065768347,1.08809
1382065828347,1.07702
1382065888347,1.06854
1382065948347,1.06237
1382066008347,1.05651
1382066068347,1.04738
1382066128347,1.05334
1382066188347,1.04741
1382066248347,1.04464
1382066308347,1.03254
1382066368347,1.04035
1382066428347,1.02913
1382066488347,1.02520
1382066548347,1.02101
1382066608347,1.02053
1382066668347,1.02230
1382066728347,1.01718
1382066788347,1.02386
1382066848347,1.02468
1382066908347,1.03045
1382066968347,1.02948
1382067028347,1.03057
1382067088347,1.01937
1382067148347,1.01460
1382067208347,1.01734
1382067268347,1.02019
1382067328347,1.01346
1382067388347,1.00581
1382067448347,1.01777
1382067508347,1.00384
1382067568347,1.00853
1382067628347,1.00984
1382067688347,0.996312
1382067748347,1.00673
1382067808347,1.01180
1382067868347,0.998975
1382067928347,1.00830
1382067988347,1.00252
1382068048347,1.00618
1382068108347,1.00378
1382068168347,1.00285
1382068228347,1.00250
1382068288347,1.00430
1382068348347,0.999613
1382068408347,1.00322
1382068468347,0.997883
1382068528347,1.00564
1382068588347,1.00176
1382068648347,1.00600
1382068708347,0.996984
1382068768347,1.00070
1382068828356,1.00627
1382068888356,1.01155
1382068948356,1.00272
1382069008356,1.00823
1382069068356,1.00625
1382069128356,1.01041
1382069188356,1.00153
1382069248356,1.00874
1382069308356,1.00590
1382069368356,1.00963
1382069428356,1.00162
1382069488356,1.00657
1382069548356,1.00061
1382069608356,1.00452
1382069668356,1.00649
1382069728356,1.00774
1382069788356,1.01093
1382069848356,1.00151
1382069908356,1.00766
1382069968356,1.00533
1382070028356,1.01257
1382070088356,1.01263
1382070148356,1.01114
1382070208356,1.00249
1382070268356,1.00832
1382070328356,1.01397
1382070388356,1.01525
1382070448356,1.01608
1382070508356,1.02465
1382070568356,1.02494
1382070628356,1.04148
1382070688356,1.04082
1382070748356,1.04763
1382070808356,1.03343
1382070868356,1.03397
1382070928356,1.03319
1382070988356,1.03199
1382071048356,1.02842
1382071108356,1.03848
1382071168356,1.02722
1382071228356,1.03767
1382071288356,1.03191
1382071348356,1.02858
1382071408356,1.02648
1382071468356,1.01686
1382071528356,1.02872
1382071588356,1.02312
1382071648356,1.01272
1382071708356,1.02085
1382071768356,1.02044
1382071828356,1.02917
1382071888356,1.02557
1382071948356,1.02413
1382072008356,1.01749
1382072068356,1.01802
1382072128356,1.01544
1382072188356,1.01283
1382072248356,1.01730
1382072308356,1.01120
1382072368356,1.00818
1382072428366,1.01373
1382072488366,1.01047
1382072548366,1.02007
1382072608366,1.01416
1382072668366,1.02773
1382072728366,1.03001
1382072788366,1.05065
1382072848366,1.07891
1382072908366,1.08193
1382072968366,1.09702
1382073028366,1.09861
1382073088366,1.08444
1382073148366,1.08832
1382073208366,1.07435
1382073268366,1.07974
1382073328366,1.06209
1382073388366,1.04985
1382073448366,1.04930
1382073508366,1.03861
1382073568366,1.03760
1382073628366,1.04202
1382073688366,1.03636
1382073748366,1.04548
1382073808366,1.03634
1382073868366,1.03772
1382073928366,1.03953
1382073988366,1.03484
1382074048366,1.03288
1382074108366,1.02559
1382074168366,1.03571
1382074228366,1.02480
1382074288366,1.03287
1382074348366,1.03122
1382074408366,1.03163
1382074468366,1.02872
1382074528366,1.02680
1382074588366,1.03514
1382074648366,1.03913
1382074708366,1.04689
1382074768366,1.05804
1382074828366,1.04678
1382074888366,1.05730
1382074948366,1.06057
1382075008366,1.05435
1382075068366,1.06532
1382075128366,1.06046
1382075188366,1.06193
1382075248366,1.05977
1382075308366,1.05691
1382075368366,1.05412
1382075428366,1.05872
1382075488366,1.05315
1382075548366,1.05098
1382075608366,1.05210
1382075668366,1.04508
1382075728366,1.05267
1382075788366,1.04507
1382075848366,1.03830
1382075908366,1.03680
1382075968366,1.03036
1382076028376,1.04065
1382076088376,1.03860
1382076148376,1.03618
1382076208376,1.04482
1382076268376,1.04274
1382076328376,1.03544
1382076388376,1.04581
1382076448376,1.03931
1382076508376,1.04721
1382076568376,1.03136
1382076628376,1.03491
1382076688376,1.03769
1382076748376,1.03031
1382076808376,1.02785
1382076868376,1.03334
1382076928376,1.04043
1382076988376,1.03299
1382077048376,1.04011
1382077108376,1.03499
1382077168376,1.03500
1382077228376,1.03131
1382077288376,1.03340
1382077348376,1.04053
1382077408376,1.04372
1382077468376,1.05051
1382077528376,1.04397
1382077588376,1.04992
1382077648376,1.04901
1382077708376,1.04668
1382077768376,1.03272
1382077828376,1.04386
1382077888376,1.03939
1382077948376,1.04192
1382078008376,1.03510
1382078068376,1.02925
1382078128376,1.02990
1382078188376,1.02423
1382078248376,1.02170
1382078308376,1.02745
1382078368376,1.03026
1382078428376,1.02775
1382078488376,1.02013
1382078548376,1.02416
1382078608376,1.02343
1382078668376,1.02013
1382078728376,1.02575
1382078788376,1.01450
1382078848376,1.01051
1382078908376,1.01324
1382078968376,1.01548
1382079028376,1.00408
1382079088376,1.01541
1382079148376,1.01848
1382079208376,1.00567
1382079268376,1.01886
1382079328376,1.00687
1382079388376,1.02008
1382079448376,1.00183
1382079508376,1.01205
1382079568376,1.00919
1382079628386,1.01220
1382079688386,1.01598
1382079748386,1.00912
1382079808386,1.00801
1382079868386,1.01381
1382079928386,1.01063
1382079988386,1.02348
1382080048386,1.01785
1382080108386,1.02272
1382080168386,1.02013
1382080228386,1.01790
1382080288386,1.02650
1382080348386,1.02651
1382080408386,1.01996
1382080468386,1.02134
1382080528386,1.01441
1382080588386,1.01700
1382080648386,1.01984
1382080708386,1.02009
1382080768386,1.02327
1382080828386,1.02364
1382080888386,1.02793
1382080948386,1.02072
1382081008386,1.02679
1382081068386,1.01944
1382081128386,1.02600
1382081188386,1.02464
1382081248386,1.03507
1382081308386,1.03861
1382081368386,1.05714
1382081428386,1.07882
1382081488386,1.07617
1382081548386,1.06001
1382081608386,1.04445
1382081668386,1.03860
1382081728386,1.02309
1382081788386,1.01505
1382081848386,1.02493
1382081908386,1.01914
1382081968386,1.02484
1382082028386,1.01933
1382082088386,1.01715
1382082148386,1.01633
1382082208386,1.02883
1382082268386,1.01846
1382082328386,1.00835
1382082388386,1.01916
1382082448386,1.01252
1382082508386,1.00699
1382082568386,1.01842
1382082628386,1.00955
1382082688386,1.01588
1382082748386,1.01500
1382082808386,1.01930
1382082868386,1.01310
1382082928386,1.02098
1382082988386,1.01560
1382083048386,1.01689
1382083108386,1.01831
1382083168386,1.01068
1382083228396,1.01375
1382083288396,1.02430
1382083348396,1.02240
1382083408396,1.01778
1382083468396,1.00746
1382083528396,1.01469
1382083588396,1.02369
1382083648396,1.02116
1382083708396,1.02057
1382083768396,1.01503
1382083828396,1.01926
1382083888396,1.01392
1382083948396,1.01002
1382084008396,1.01564
1382084068396,1.01142
1382084128396,1.01940
1382084188396,1.01253
1382084248396,1.02196
1382084308396,1.02482
1382084368396,1.02445
1382084428396,1.03713
1382084488396,1.04980
1382084548396,1.05106
1382084608396,1.05055
1382084668396,1.03668
1382084728396,1.04261
1382084788396,1.02983
1382084848396,1.02665
1382084908396,1.03892
1382084968396,1.03758
1382085028396,1.04153
1382085088396,1.05085
1382085148396,1.05205
1382085208396,1.06381
1382085268396,1.06979
1382085328396,1.06044
1382085388396,1.05581
1382085448396,1.04878
1382085508396,1.04373
1382085568396,1.04351
1382085628396,1.02821
1382085688396,1.03333
1382085748396,1.02621
1382085808396,1.03222
1382085868396,1.02321
1382085928396,1.02577
1382085988396,1.02694
1382086048396,1.02733
1382086108396,1.02473
1382086168396,1.03303
1382086228396,1.02756
1382086288396,1.03058
1382086348396,1.03025
1382086408396,1.02964
1382086468396,1.04129
1382086528396,1.03930
1382086588396,1.03507
1382086648396,1.04560
1382086708396,1.04818
1382086768396,1.04054
1382086828407,1.04539
1382086888407,1.05728
1382086948407,1.05229
1382087008407,1.05477
1382087068407,1.06876
1382087128407,1.06207
1382087188407,1.06643
1382087248407,1.07006
1382087308407,1.06373
1382087368407,1.07702
1382087428407,1.06877
1382087488407,1.07398
1382088028407,1.07787
1382088088407,1.07356
1382088148407,1.07034
1382088208407,1.07204
1382088268407,1.06954
1382088328407,1.07384
1382088388407,1.07777
1382088448407,1.08048
1382088508407,1.07172
1382088568407,1.06906
1382088628407,1.07509
1382088688407,1.06934
1382088748407,1.07464
1382088808407,1.07719
1382088868407,1.06298
1382088928407,1.07743
1382088988407,1.08573
1382089048407,1.07533
1382089108407,1.07569
1382089168407,1.08101
1382089228407,1.07514
1382089288407,1.07579
1382089348407,1.06946
1382089408407,1.06617
1382089468407,1.07637
1382089528407,1.06716
1382089588407,1.06633
1382089648407,1.05611
1382089708407,1.06909
1382089768407,1.06011
1382089828407,1.05390
1382089888407,1.05189
1382089948407,1.06626
1382090008407,1.05439
1382090068407,1.06301
1382090128407,1.04979
1382090188407,1.04863
1382090248407,1.05270
1382090308407,1.04718
1382090368407,1.05339
1382090428417,1.04266
1382090488417,1.05055
1382090548417,1.04382
1382090608417,1.04495
1382090668417,1.02858
1382090728417,1.02900
1382090788417,1.03980
1382090848417,1.03191
1382090908417,1.03380
1382090968417,1.03623
1382091028417,1.03808
1382091088417,1.03767
1382091148417,1.03467
1382091208417,1.03337
1382091268417,1.02371
1382091328417,1.03578
1382091388417,1.04108
1382091448417,1.03058
1382091508417,1.03844
1382091568417,1.03363
1382091628417,1.04231
1382091688417,1.05314
1382091748417,1.06109
1382091808417,1.07052
1382091868417,1.07779
1382091928417,1.08334
1382091988417,1.08201
1382092048417,1.09490
1382092108417,1.09140
1382092168417,1.10290
1382092228417,1.10408
1382092288417,1.11710
1382092348417,1.12392
1382092408417,1.13259
1382092468417,1.13429
1382092528417,1.14267
1382092588417,1.14934
1382092648417,1.14565
1382092708417,1.15863
1382092768417,1.15656
1382092828417,1.16976
1382092888417,1.17441
1382092948417,1.18044
1382093008417,1.16722
1382093068417,1.17384
1382093128417,1.18382
1382093188417,1.17580
1382093248417,1.18079
1382093308417,1.18274
1382093368417,1.17453
1382093428417,1.15720
1382093488417,1.15411
1382093548417,1.15867
1382093608417,1.16200
1382093668417,1.17569
1382093728417,1.19189
1382093788417,1.17248
1382093848417,1.15993
1382093908417,1.14251
1382093968417,1.13351
1382094028428,1.13253
1382094088428,1.11782
1382094148428,1.11442
1382094208428,1.10611
1382094268428,1.10944
1382094328428,1.09888
1382094388428,1.09762
1382094448428,1.09234
1382094508428,1.09268
1382094568428,1.09162
1382094628428,1.08571
1382094688428,1.08668
1382094748428,1.07568
1382094808428,1.08045
1382094868428,1.07714
1382094928428,1.07198
1382094988428,1.06995
1382095048428,1.07346
1382095108428,1.06733
1382095168428,1.07029
1382095228428,1.06478
1382095288428,1.07471
1382095348428,1.05872
1382095408428,1.06399
1382095468428,1.05524
1382095528428,1.06010
1382095588428,1.06277
1382095648428,1.06146
1382095708428,1.05628
1382095768428,1.06489
1382095828428,1.05220
1382095888428,1.05590
1382095948428,1.05475
1382096008428,1.06089
1382096068428,1.04975
1382096128428,1.05438
1382096188428,1.05400
1382096248428,1.05468
1382096308428,1.04692
1382096368428,1.04234
1382096428428,1.04529
1382096488428,1.03961
1382096548428,1.03938
1382096608428,1.03261
1382096668428,1.03892
1382096728428,1.04065
1382096788428,1.03005
1382096848428,1.03307
1382096908428,1.03136
1382096968428,1.03844
1382097028428,1.03795
1382097088428,1.03955
1382097148428,1.03955
1382097208428,1.02718
1382097268428,1.03324
1382097328428,1.03400
1382097388428,1.03265
1382097448428,1.02454
1382097508428,1.03631
1382097568428,1.03234
1382097628439,1.03713
1382097688439,1.02738
1382097748439,1.03460
1382097808439,1.03288
1382097868439,1.03693
1382097928439,1.02407
1382097988439,1.03173
1382098048439,1.03010
1382098108439,1.02818
1382098168439,1.03254
1382098228439,1.03570
1382098288439,1.03768
1382098348439,1.02350
1382098408439,1.03721
1382098468439,1.03138
1382098528439,1.02952
1382098588439,1.03591
1382098648439,1.02881
1382098708439,1.03316
1382098768439,1.03877
1382098828439,1.03372
1382098888439,1.02489
1382098948439,1.03212
1382099008439,1.03279
1382099068439,1.03500
1382099128439,1.03613
1382099188439,1.03660
1382099248439,1.05139
1382099308439,1.04425
1382099368439,1.04094
1382099428439,1.03340
1382099488439,1.03139
1382099548439,1.03911
1382099608439,1.03400
1382099668439,1.04700
1382099728439,1.03073
1382099788439,1.03625
1382099848439,1.03686
1382099908439,1.03132
1382099968439,1.02770
1382100028439,1.02682
1382100088439,1.03369
1382100148439,1.03653
1382100208439,1.03811
1382100268439,1.02900
1382100328439,1.03110
1382100388439,1.02559
1382100448439,1.03216
1382100508439,1.03271
1382100568439,1.02209
1382100628439,1.02863
1382100688439,1.03297
1382100748439,1.03222
1382100808439,1.02535
1382100868439,1.02692
1382100928439,1.02796
1382100988439,1.02891
1382101048439,1.02711
1382101108439,1.02465
1382101168439,1.02594
1382101228451,1.03077
1382101288451,1.02222
1382101348451,1.03438
1382101408451,1.02465
1382101468451,1.03043
1382101528451,1.02665
1382101588451,1.03468
1382101648451,1.02839
1382101708451,1.03541
1382101768451,1.03686
1382101828451,1.03126
1382101888451,1.03872
1382101948451,1.04088
1382102008451,1.03506
1382102068451,1.03275
1382102128451,1.04478
1382102188451,1.03238
1382102248451,1.03224
1382102308451,1.04688
1382102368451,1.03507
1382102428451,1.04566
1382102488451,1.03608
1382102548451,1.04115
1382102608451,1.04751
1382102668451,1.02936
1382102728451,1.04257
1382102788451,1.04258
1382102848451,1.04042
1382102908451,1.03621
1382102968451,1.03744
1382103028451,1.03710
1382103088451,1.03067
1382103148451,1.03049
1382103208451,1.02427
1382103268451,1.02543
1382103328451,1.02560
1382103388451,1.02812
1382103448451,1.03194
1382103508451,1.02082
1382103568451,1.02004
1382103628451,1.02278
1382103688451,1.02720
1382103748451,1.02793
1382103808451,1.02326
1382103868451,1.02547
1382103928451,1.01754
1382103988451,1.02579
1382104048451,1.03018
1382104108451,1.02816
1382104168451,1.02492
1382104228451,1.02725
1382104288451,1.03123
1382104348451,1.02668
1382104408451,1.03675
1382104468451,1.03614
1382104528451,1.04278
1382104588451,1.04437
1382104648451,1.04828
1382104708451,1.04657
1382104768451,1.05796
1382104828462,1.04779
1382104888462,1.04396
1382104948462,1.05600
1382105008462,1.05458
1382105068462,1.04594
1382105128462,1.04710
1382105188462,1.05395
1382105248462,1.05306
1382105308462,1.05233
1382105368462,1.05891
1382105428462,1.05799
1382105488462,1.06850
1382105548462,1.07294
1382105608462,1.07751
1382105668462,1.07717
1382105728462,1.07888
1382105788462,1.07535
1382105848462,1.08089
1382105908462,1.07361
1382105968462,1.07665
1382106028462,1.06714
1382106088462,1.07024
1382106148462,1.07103
1382106208462,1.06130
1382106268462,1.05391
1382106328462,1.05684
1382106388462,1.07216
1382106448462,1.05164
1382106508462,1.06001
1382106568462,1.05407
1382106628462,1.05120
1382106688462,1.04997
1382106748462,1.05317
1382106808462,1.05155
1382106868462,1.04648
1382106928462,1.04494
1382106988462,1.05377
1382107048462,1.04329
1382107108462,1.04205
1382107168462,1.04246
1382107228462,1.03794
1382107288462,1.03342
1382107348462,1.03496
1382107408462,1.04826
1382107468462,1.04449
1382107528462,1.03682
1382107588462,1.04940
1382107648462,1.04714
1382107708462,1.04660
1382107768462,1.05952
1382107828462,1.05827
1382107888462,1.05531
1382107948462,1.04470
1382108008462,1.06024
1382108068462,1.05109
1382108128462,1.05201
1382108188462,1.05796
1382108248462,1.05027
1382108308462,1.05152
1382108368462,1.05380
1382108428474,1.05028
1382108488474,1.05585
1382108548474,1.05056
1382108608474,1.04650
1382108668474,1.04720
1382108728474,1.05545
1382108788474,1.06215
1382108848474,1.06341
1382108908474,1.06722
1382108968474,1.07426
1382109028474,1.07789
1382109088474,1.07363
1382109148474,1.08175
1382109208474,1.09285
1382109268474,1.10431
1382109328474,1.11375
1382109388474,1.12620
1382109448474,1.12221
1382109508474,1.13590
1382109568474,1.13358
1382109628474,1.14263
1382109688474,1.14795
1382109748474,1.15808
1382109808474,1.15532
1382109868474,1.17210
1382109928474,1.18236
1382109988474,1.19021
1382110048474,1.21756
1382110108474,1.21000
1382110168474,1.23297
1382110228474,1.23205
1382110288474,1.24685
1382110348474,1.24047
1382110408474,1.25826
1382110468474,1.26282
1382110528474,1.26279
1382110588474,1.26263
1382110648474,1.26553
1382110708474,1.27093
1382110768474,1.27016
1382110828474,1.27026
1382110888474,1.26177
1382110948474,1.25604
1382111008474,1.26188
1382111068474,1.25418
1382111128474,1.25250
1382111188474,1.24730
1382111248474,1.23639
1382111308474,1.24513
1382111368474,1.23845
1382111428474,1.23253
1382111488474,1.22861
1382111548474,1.22008
1382111608474,1.20496
1382111668474,1.20684
1382111728474,1.20539
1382111788474,1.18896
1382111848474,1.18175
1382111908474,1.17702
1382111968474,1.17560
1382112028479,1.16432
1382112088479,1.16116
1382112148479,1.16935
1382112208479,1.14931
1382112268479,1.14607
1382112328479,1.14752
1382112388479,1.14077
1382112448479,1.13448
1382112508479,1.13677
1382112568479,1.13151
1382112628479,1.12849
1382112688479,1.13195
1382112748479,1.12767
1382112808479,1.12191
1382112868479,1.11893
1382112928479,1.11084
1382112988479,1.10983
1382113048479,1.12246
1382113108479,1.11776
1382113168479,1.11675
1382113228479,1.11535
1382113288479,1.10142
1382113348479,1.10801
1382113408479,1.10878
1382113468479,1.10728
1382113528479,1.09748
1382113588479,1.10571
1382113648479,1.08860
1382113708479,1.08664
1382113768479,1.08896
1382113828479,1.08321
1382113888479,1.07816
1382113948479,1.07388
1382114008479,1.07900
1382114068479,1.07194
1382114128479,1.07881
1382114188479,1.07105
1382114248479,1.07242
1382114308479,1.07766
1382114368479,1.08009
1382114428479,1.08019
1382114488479,1.07938
1382114548479,1.08329
1382114608479,1.08186
1382114668479,1.06884
1382114728479,1.07686
1382114788479,1.08120
1382114848479,1.07327
1382114908479,1.07544
1382114968479,1.07129
1382115028479,1.08289
1382115088479,1.07234
1382115148479,1.06482
1382115208479,1.06778
1382115268479,1.06893
1382115328479,1.07105
1382115388479,1.06548
1382115448479,1.07228
1382115508479,1.06801
1382115568479,1.07093
1382115628490,1.07070
1382115688490,1.07403
1382115748490,1.06994
1382115808490,1.08290
1382115868490,1.08436
1382115928490,1.07382
1382115988490,1.06858
1382116048490,1.07386
1382116108490,1.06560
1382116168490,1.06392
1382116228490,1.06319
1382116288490,1.07133
1382116348490,1.06696
1382116408490,1.06513
1382116468490,1.06690
1382116528490,1.05517
1382116588490,1.06396
1382116648490,1.07230
1382116708490,1.04327
1382116768490,1.06067
1382116828490,1.05661
1382116888490,1.04226
1382116948490,1.05467
1382117008490,1.05743
1382117068490,1.04958
1382117128490,1.05120
1382117188490,1.04645
1382117248490,1.05425
1382117308490,1.05649
1382117368490,1.05519
1382117428490,1.06056
1382117488490,1.05056
1382117548490,1.05945
1382117608490,1.05907
1382117668490,1.05901
1382117728490,1.06503
1382117788490,1.06559
1382117848490,1.06691
1382117908490,1.07109
1382117968490,1.07841
1382118028490,1.08464
1382118088490,1.09243
1382118148490,1.08271
1382118208490,1.08567
1382118268490,1.08108
1382118328490,1.08227
1382118388490,1.09343
1382118448490,1.08627
1382118508490,1.09913
1382118568490,1.08463
1382118628490,1.08739
1382118688490,1.09308
1382118748490,1.08259
1382118808490,1.08226
1382118868490,1.07924
1382118928490,1.08255
1382118988490,1.07432
1382119048490,1.07017
1382119108490,1.06749
1382119168490,1.07650
1382119228502,1.06327
1382119288502,1.07049
1382119348502,1.06753
1382119408502,1.07168
1382119468502,1.06608
1382119528502,1.06475
1382119588502,1.06479
1382119648502,1.05463
1382119708502,1.05878
1382119768502,1.06059
1382119828502,1.04945
1382119888502,1.05607
1382119948502,1.06538
1382120008502,1.05538
1382120068502,1.05145
1382120128502,1.05055
1382120188502,1.05160
1382120248502,1.05790